Find Starlink 11168

NORAD ID: 60183 Int'l Des: 2024-124 Owner: SPXS Country: US Constellation: starlink operational
LEOCIRCULAR

Live Position

Loading 3D Globe...

About Starlink 11168

Description loading...

Upcoming Passes

Passes for default location (London). Set your location on the main map for personalized predictions.

Altitude History

Loading altitude history...

Two-Line Element Set

1 60183U 24124A 26125.60019558 .00005098 00000-0 46924-4 0 9992
2 60183 53.1596 240.6248 0000893 103.6321 256.4796 15.69701329106662
Epoch: May 5, 2026 • Age: 47 hours

Current Status

Altitude 359.9 km
Velocity 7.70 km/s
Sub-Earth Point 16.10°N, 169.97°E
Launch Date Jul 3, 2024
Age 1.8 years
Type internet

Technical Details

Classification Payload
Mass 960.00 kg
Dry Mass 910.00 kg
Total Mass 960.00 kg
Length 0.30 m
Diameter 4.10 m
Span 29.00 m
Shape Box + pan
Manufacturer SPXS
Bus Type Starlink V2MD
Phase Status In Orbit
Owner/State SPXS/US

Most Searched